﻿測定場所 (Monitoring sites),日付 (Measurement date),時間 (Measurement time),線量率 最大値 (max) μGy/h,線量率 最小値 (min) μGy/h,線量率 平均値 (average) μGy/h,
江戸川 (Edogawa),2018-08-19,23:01～24:00,0.0548,0.0471,0.0503,
江戸川 (Edogawa),2018-08-19,22:01～23:00,0.0531,0.0467,0.0499,
江戸川 (Edogawa),2018-08-19,21:01～22:00,0.0533,0.0464,0.0502,
江戸川 (Edogawa),2018-08-19,20:01～21:00,0.0540,0.0465,0.0503,
江戸川 (Edogawa),2018-08-19,19:01～20:00,0.0526,0.0470,0.0499,
江戸川 (Edogawa),2018-08-19,18:01～19:00,0.0537,0.0473,0.0502,
江戸川 (Edogawa),2018-08-19,17:01～18:00,0.0532,0.0477,0.0505,
江戸川 (Edogawa),2018-08-19,16:01～17:00,0.0542,0.0465,0.0502,
江戸川 (Edogawa),2018-08-19,15:01～16:00,0.0537,0.0463,0.0499,
江戸川 (Edogawa),2018-08-19,14:01～15:00,0.0535,0.0470,0.0501,
江戸川 (Edogawa),2018-08-19,13:01～14:00,0.0538,0.0465,0.0504,
江戸川 (Edogawa),2018-08-19,12:01～13:00,0.0537,0.0474,0.0503,
江戸川 (Edogawa),2018-08-19,11:01～12:00,0.0535,0.0477,0.0505,
江戸川 (Edogawa),2018-08-19,10:01～11:00,0.0544,0.0466,0.0502,
江戸川 (Edogawa),2018-08-19,09:01～10:00,0.0528,0.0470,0.0500,
江戸川 (Edogawa),2018-08-19,08:01～09:00,0.0552,0.0475,0.0505,
江戸川 (Edogawa),2018-08-19,07:01～08:00,0.0543,0.0478,0.0507,
江戸川 (Edogawa),2018-08-19,06:01～07:00,0.0539,0.0466,0.0506,
江戸川 (Edogawa),2018-08-19,05:01～06:00,0.0525,0.0472,0.0505,
江戸川 (Edogawa),2018-08-19,04:01～05:00,0.0534,0.0478,0.0509,
江戸川 (Edogawa),2018-08-19,03:01～04:00,0.0541,0.0477,0.0505,
江戸川 (Edogawa),2018-08-19,02:01～03:00,0.0536,0.0460,0.0506,
江戸川 (Edogawa),2018-08-19,01:01～02:00,0.0534,0.0465,0.0503,
江戸川 (Edogawa),2018-08-19,00:01～01:00,0.0536,0.0476,0.0506,
江戸川 (Edogawa),2018-08-18,23:01～24:00,0.0523,0.0468,0.0501,
江戸川 (Edogawa),2018-08-18,22:01～23:00,0.0531,0.0465,0.0501,
江戸川 (Edogawa),2018-08-18,21:01～22:00,0.0532,0.0473,0.0500,
江戸川 (Edogawa),2018-08-18,20:01～21:00,0.0534,0.0461,0.0501,
江戸川 (Edogawa),2018-08-18,19:01～20:00,0.0533,0.0476,0.0502,
江戸川 (Edogawa),2018-08-18,18:01～19:00,0.0534,0.0464,0.0503,
江戸川 (Edogawa),2018-08-18,17:01～18:00,0.0544,0.0468,0.0502,
江戸川 (Edogawa),2018-08-18,16:01～17:00,0.0531,0.0464,0.0499,
江戸川 (Edogawa),2018-08-18,15:01～16:00,0.0528,0.0460,0.0502,
江戸川 (Edogawa),2018-08-18,14:01～15:00,0.0527,0.0475,0.0504,
江戸川 (Edogawa),2018-08-18,13:01～14:00,0.0538,0.0477,0.0504,
江戸川 (Edogawa),2018-08-18,12:01～13:00,0.0542,0.0471,0.0500,
江戸川 (Edogawa),2018-08-18,11:01～12:00,0.0535,0.0456,0.0502,
江戸川 (Edogawa),2018-08-18,10:01～11:00,0.0548,0.0470,0.0505,
江戸川 (Edogawa),2018-08-18,09:01～10:00,0.0533,0.0480,0.0503,
江戸川 (Edogawa),2018-08-18,08:01～09:00,0.0550,0.0484,0.0508,
江戸川 (Edogawa),2018-08-18,07:01～08:00,0.0543,0.0481,0.0507,
江戸川 (Edogawa),2018-08-18,06:01～07:00,0.0547,0.0463,0.0502,
江戸川 (Edogawa),2018-08-18,05:01～06:00,0.0534,0.0470,0.0501,
江戸川 (Edogawa),2018-08-18,04:01～05:00,0.0540,0.0473,0.0503,
江戸川 (Edogawa),2018-08-18,03:01～04:00,0.0530,0.0478,0.0507,
江戸川 (Edogawa),2018-08-18,02:01～03:00,0.0533,0.0461,0.0503,
江戸川 (Edogawa),2018-08-18,01:01～02:00,0.0535,0.0467,0.0505,
江戸川 (Edogawa),2018-08-18,00:01～01:00,0.0546,0.0475,0.0508,
江戸川 (Edogawa),2018-08-17,23:01～24:00,0.0551,0.0466,0.0506,
江戸川 (Edogawa),2018-08-17,22:01～23:00,0.0533,0.0469,0.0503,
江戸川 (Edogawa),2018-08-17,21:01～22:00,0.0534,0.0470,0.0504,
江戸川 (Edogawa),2018-08-17,20:01～21:00,0.0535,0.0475,0.0503,
江戸川 (Edogawa),2018-08-17,19:01～20:00,0.0524,0.0471,0.0500,
江戸川 (Edogawa),2018-08-17,18:01～19:00,0.0527,0.0467,0.0504,
江戸川 (Edogawa),2018-08-17,17:01～18:00,0.0551,0.0472,0.0502,
江戸川 (Edogawa),2018-08-17,16:01～17:00,0.0551,0.0464,0.0502,
江戸川 (Edogawa),2018-08-17,15:01～16:00,0.0540,0.0472,0.0501,
江戸川 (Edogawa),2018-08-17,14:01～15:00,0.0549,0.0469,0.0499,
江戸川 (Edogawa),2018-08-17,13:01～14:00,0.0535,0.0467,0.0506,
江戸川 (Edogawa),2018-08-17,12:01～13:00,0.0551,0.0474,0.0517,
江戸川 (Edogawa),2018-08-17,11:01～12:00,0.0553,0.0467,0.0511,
江戸川 (Edogawa),2018-08-17,10:01～11:00,0.0543,0.0464,0.0504,
江戸川 (Edogawa),2018-08-17,09:01～10:00,0.0535,0.0470,0.0502,
江戸川 (Edogawa),2018-08-17,08:01～09:00,0.0535,0.0479,0.0505,
江戸川 (Edogawa),2018-08-17,07:01～08:00,0.0532,0.0465,0.0506,
江戸川 (Edogawa),2018-08-17,06:01～07:00,0.0544,0.0469,0.0502,
江戸川 (Edogawa),2018-08-17,05:01～06:00,0.0536,0.0461,0.0503,
江戸川 (Edogawa),2018-08-17,04:01～05:00,0.0553,0.0468,0.0505,
江戸川 (Edogawa),2018-08-17,03:01～04:00,0.0533,0.0475,0.0506,
江戸川 (Edogawa),2018-08-17,02:01～03:00,0.0553,0.0478,0.0506,
江戸川 (Edogawa),2018-08-17,01:01～02:00,0.0537,0.0478,0.0509,
江戸川 (Edogawa),2018-08-17,00:01～01:00,0.0546,0.0478,0.0512,
江戸川 (Edogawa),2018-08-16,23:01～24:00,0.0537,0.0468,0.0508,
江戸川 (Edogawa),2018-08-16,22:01～23:00,0.0544,0.0470,0.0503,
江戸川 (Edogawa),2018-08-16,21:01～22:00,0.0546,0.0460,0.0502,
江戸川 (Edogawa),2018-08-16,20:01～21:00,0.0540,0.0481,0.0510,
江戸川 (Edogawa),2018-08-16,19:01～20:00,0.0544,0.0462,0.0504,
江戸川 (Edogawa),2018-08-16,18:01～19:00,0.0527,0.0470,0.0496,
江戸川 (Edogawa),2018-08-16,17:01～18:00,0.0534,0.0457,0.0494,
江戸川 (Edogawa),2018-08-16,16:01～17:00,0.0545,0.0464,0.0498,
江戸川 (Edogawa),2018-08-16,15:01～16:00,0.0535,0.0466,0.0496,
江戸川 (Edogawa),2018-08-16,14:01～15:00,0.0537,0.0468,0.0495,
江戸川 (Edogawa),2018-08-16,13:01～14:00,0.0527,0.0460,0.0493,
江戸川 (Edogawa),2018-08-16,12:01～13:00,0.0529,0.0458,0.0495,
江戸川 (Edogawa),2018-08-16,11:01～12:00,0.0529,0.0458,0.0493,
江戸川 (Edogawa),2018-08-16,10:01～11:00,0.0534,0.0459,0.0495,
江戸川 (Edogawa),2018-08-16,09:01～10:00,0.0525,0.0452,0.0491,
江戸川 (Edogawa),2018-08-16,08:01～09:00,0.0530,0.0461,0.0491,
江戸川 (Edogawa),2018-08-16,07:01～08:00,0.0526,0.0450,0.0492,
江戸川 (Edogawa),2018-08-16,06:01～07:00,0.0527,0.0467,0.0494,
江戸川 (Edogawa),2018-08-16,05:01～06:00,0.0515,0.0455,0.0493,
江戸川 (Edogawa),2018-08-16,04:01～05:00,0.0527,0.0459,0.0493,
江戸川 (Edogawa),2018-08-16,03:01～04:00,0.0531,0.0466,0.0496,
江戸川 (Edogawa),2018-08-16,02:01～03:00,0.0517,0.0468,0.0490,
江戸川 (Edogawa),2018-08-16,01:01～02:00,0.0520,0.0467,0.0494,
江戸川 (Edogawa),2018-08-16,00:01～01:00,0.0520,0.0466,0.0488,
江戸川 (Edogawa),2018-08-15,23:01～24:00,0.0529,0.0458,0.0491,
江戸川 (Edogawa),2018-08-15,22:01～23:00,0.0527,0.0471,0.0494,
江戸川 (Edogawa),2018-08-15,21:01～22:00,0.0531,0.0468,0.0494,
江戸川 (Edogawa),2018-08-15,20:01～21:00,0.0526,0.0466,0.0491,
江戸川 (Edogawa),2018-08-15,19:01～20:00,0.0534,0.0460,0.0491,
江戸川 (Edogawa),2018-08-15,18:01～19:00,0.0521,0.0466,0.0493,
江戸川 (Edogawa),2018-08-15,17:01～18:00,0.0523,0.0458,0.0495,
江戸川 (Edogawa),2018-08-15,16:01～17:00,0.0525,0.0453,0.0489,
江戸川 (Edogawa),2018-08-15,15:01～16:00,0.0525,0.0465,0.0491,
江戸川 (Edogawa),2018-08-15,14:01～15:00,0.0519,0.0449,0.0489,
江戸川 (Edogawa),2018-08-15,13:01～14:00,0.0519,0.0461,0.0491,
江戸川 (Edogawa),2018-08-15,12:01～13:00,0.0522,0.0449,0.0493,
江戸川 (Edogawa),2018-08-15,11:01～12:00,0.0521,0.0456,0.0491,
江戸川 (Edogawa),2018-08-15,10:01～11:00,0.0511,0.0455,0.0489,
江戸川 (Edogawa),2018-08-15,09:01～10:00,0.0529,0.0463,0.0494,
江戸川 (Edogawa),2018-08-15,08:01～09:00,0.0524,0.0444,0.0489,
江戸川 (Edogawa),2018-08-15,07:01～08:00,0.0532,0.0452,0.0485,
江戸川 (Edogawa),2018-08-15,06:01～07:00,0.0519,0.0453,0.0492,
江戸川 (Edogawa),2018-08-15,05:01～06:00,0.0527,0.0449,0.0485,
江戸川 (Edogawa),2018-08-15,04:01～05:00,0.0506,0.0460,0.0484,
江戸川 (Edogawa),2018-08-15,03:01～04:00,0.0523,0.0451,0.0488,
江戸川 (Edogawa),2018-08-15,02:01～03:00,0.0530,0.0455,0.0490,
江戸川 (Edogawa),2018-08-15,01:01～02:00,0.0520,0.0462,0.0489,
江戸川 (Edogawa),2018-08-15,00:01～01:00,0.0524,0.0461,0.0491,
江戸川 (Edogawa),2018-08-14,23:01～24:00,0.0526,0.0465,0.0486,
江戸川 (Edogawa),2018-08-14,22:01～23:00,0.0521,0.0446,0.0489,
江戸川 (Edogawa),2018-08-14,21:01～22:00,0.0515,0.0448,0.0489,
江戸川 (Edogawa),2018-08-14,20:01～21:00,0.0523,0.0447,0.0491,
江戸川 (Edogawa),2018-08-14,19:01～20:00,0.0525,0.0444,0.0488,
江戸川 (Edogawa),2018-08-14,18:01～19:00,0.0522,0.0457,0.0488,
江戸川 (Edogawa),2018-08-14,17:01～18:00,0.0516,0.0467,0.0488,
江戸川 (Edogawa),2018-08-14,16:01～17:00,0.0531,0.0461,0.0490,
江戸川 (Edogawa),2018-08-14,15:01～16:00,0.0521,0.0454,0.0490,
江戸川 (Edogawa),2018-08-14,14:01～15:00,0.0517,0.0448,0.0486,
江戸川 (Edogawa),2018-08-14,13:01～14:00,0.0520,0.0449,0.0488,
江戸川 (Edogawa),2018-08-14,12:01～13:00,0.0521,0.0455,0.0489,
江戸川 (Edogawa),2018-08-14,11:01～12:00,0.0523,0.0457,0.0490,
江戸川 (Edogawa),2018-08-14,10:01～11:00,0.0522,0.0459,0.0490,
江戸川 (Edogawa),2018-08-14,09:01～10:00,0.0534,0.0456,0.0492,
江戸川 (Edogawa),2018-08-14,08:01～09:00,0.0525,0.0458,0.0491,
江戸川 (Edogawa),2018-08-14,07:01～08:00,0.0528,0.0457,0.0489,
江戸川 (Edogawa),2018-08-14,06:01～07:00,0.0519,0.0454,0.0490,
江戸川 (Edogawa),2018-08-14,05:01～06:00,0.0515,0.0451,0.0485,
江戸川 (Edogawa),2018-08-14,04:01～05:00,0.0511,0.0457,0.0486,
江戸川 (Edogawa),2018-08-14,03:01～04:00,0.0513,0.0463,0.0488,
江戸川 (Edogawa),2018-08-14,02:01～03:00,0.0514,0.0462,0.0487,
江戸川 (Edogawa),2018-08-14,01:01～02:00,0.0528,0.0450,0.0487,
江戸川 (Edogawa),2018-08-14,00:01～01:00,0.0530,0.0456,0.0488,
江戸川 (Edogawa),2018-08-13,23:01～24:00,0.0532,0.0453,0.0489,
江戸川 (Edogawa),2018-08-13,22:01～23:00,0.0510,0.0454,0.0487,
江戸川 (Edogawa),2018-08-13,21:01～22:00,0.0518,0.0461,0.0492,
江戸川 (Edogawa),2018-08-13,20:01～21:00,0.0524,0.0467,0.0491,
江戸川 (Edogawa),2018-08-13,19:01～20:00,0.0523,0.0470,0.0500,
江戸川 (Edogawa),2018-08-13,18:01～19:00,0.0552,0.0483,0.0512,
江戸川 (Edogawa),2018-08-13,17:01～18:00,0.0568,0.0483,0.0530,
江戸川 (Edogawa),2018-08-13,16:01～17:00,0.0551,0.0468,0.0499,
江戸川 (Edogawa),2018-08-13,15:01～16:00,0.0547,0.0464,0.0503,
江戸川 (Edogawa),2018-08-13,14:01～15:00,0.0521,0.0455,0.0486,
江戸川 (Edogawa),2018-08-13,13:01～14:00,0.0521,0.0462,0.0491,
江戸川 (Edogawa),2018-08-13,12:01～13:00,0.0525,0.0456,0.0489,
江戸川 (Edogawa),2018-08-13,11:01～12:00,0.0516,0.0452,0.0490,
江戸川 (Edogawa),2018-08-13,10:01～11:00,0.0518,0.0453,0.0492,
江戸川 (Edogawa),2018-08-13,09:01～10:00,0.0529,0.0462,0.0493,
江戸川 (Edogawa),2018-08-13,08:01～09:00,0.0522,0.0452,0.0491,
江戸川 (Edogawa),2018-08-13,07:01～08:00,0.0533,0.0462,0.0492,
江戸川 (Edogawa),2018-08-13,06:01～07:00,0.0519,0.0464,0.0490,
江戸川 (Edogawa),2018-08-13,05:01～06:00,0.0530,0.0463,0.0493,
江戸川 (Edogawa),2018-08-13,04:01～05:00,0.0534,0.0457,0.0489,
江戸川 (Edogawa),2018-08-13,03:01～04:00,0.0541,0.0465,0.0495,
江戸川 (Edogawa),2018-08-13,02:01～03:00,0.0522,0.0469,0.0490,
江戸川 (Edogawa),2018-08-13,01:01～02:00,0.0532,0.0457,0.0489,
江戸川 (Edogawa),2018-08-13,00:01～01:00,0.0520,0.0456,0.0488,
